OPS 4682 DEB, 18675

Orbit data source: Space-Track

OPS 4682 DEB, 18675 is space debris in LEO originally from a launch on Sat, 03 Apr 1965 UTC launched from the Air Force Western Test Range (AFWTR). Debris objects in space refer to the collection of defunct objects orbiting the Earth. Examples of debris include non-operational satellites, rocket bodies, and fragments generated from explosions, collisions, or faulty payload assembly.

Loading next visibility...
Identifier
18675, 1965-027AH
Orbit
LEO
Country
Flag of USUS
Related business
Manufacturer
Unknown
Mission
Spacecraft
Bus & Motor
Unknown
Mass
Unknown
Launch date (UTC)
1965-04-03 (61 years ago)
Launch vehicle
Unknown
Launch site
Air Force Western Test Range (AFWTR)
Object type
Payload
Rocket body
Debris
Shape & HBR
Unknown shape, 0.1 m
Radar Cross Section
Small (<0.1 m²)

Expand to show TLE details & history
Last TLE update: 1 day ago

TLE from 1 day ago
0 OPS 4682 DEB
1 18675U 65027AH  25293.62628796  .00001194  00000-0  39553-2 0  9996
2 18675  90.2441 349.1355 0026228 179.5038 333.9018 12.99671530827470
Epoch: 2025-10-20T15:01Z
TLE epoch observation values (Epoch: 2025-10-20T15:01:51.279Z)
Latitude
26.75986°
Longitude
-85.53159°
Altitude
1,248.644 km
Speed
7.241 km/s
True Right ascension
11h 17m 01s
True Declination
26° 37' 51"
Sunlit
Object was in daylight at epoch
Visualization orbit readout
Latitude
Unknown
Longitude
Unknown
Altitude
Unknown
Speed
Unknown
Apparent Right ascension
Unknown
Apparent Declination
Unknown
Sunlit
N/A
Visualization observer readout
Local Sidereal Time
12:47:36
Azimuth
Unknown
Elevation
Unknown
Doppler factor
Unknown
Orbital elements
Apogee altitude
1,280.536 km
Perigee altitude
1,240.467 km
Semi-major axis
7,638.638 km
Eccentricity
0.00262
Inclination
90.2441°
RAAN
349.1355°
Arg. of periapsis
179.5038°
True anomaly
333.76919°
Mean anomaly
333.9018°
Eccentric anomaly
333.83554°
Mean motion
3.25102 °/min
Orbital period
110.73 mins
BSTAR
0.0039553
Loading maneuver chart data...
Computing Atmospheric mass density...
Loading historical data...
Loading historical data...
Loading historical data...
Loading historical data...
Loading historical data...
Loading historical data...
Loading historical data...

Documentation

Showing up to 5 results
|